DO9LL-1 Weather Reports


Display with metric or nautical units.
time (UTC)temp
F
wind
direction
speed
MPH
gust
MPH
rain 1hr
in
rain 24hr
in
rain mn
in
humidity
%
barometer
mb
20260831100721 69 289 4.0 13.0 0.00 0.01 0.01 70 1008.5
20260831095718 68 249 4.0 13.0 0.00 0.01 0.01 73 1008.5
20260831094735 68 253 4.0 13.0 0.00 0.01 0.01 73 1008.5
20260831093732 68 254 4.0 9.0 0.00 0.01 0.01 75 1008.5
20260831092734 66 254 4.0 10.0 0.00 0.01 0.01 78 1008.7
20260831091731 67 283 5.0 11.0 0.00 0.01 0.01 76 1008.8
20260831090723 68 251 4.0 10.0 0.00 0.01 0.01 74 1008.6
20260831085720 67 283 4.0 10.0 0.00 0.01 0.01 76 1008.6
20260831084717 65 260 4.0 10.0 0.00 0.01 0.01 79 1008.6
20260831083734 66 258 4.0 9.0 0.00 0.01 0.01 78 1008.7
20260831082736 65 256 3.0 8.0 0.00 0.01 0.01 81 1008.8
20260831081728 64 226 2.0 6.0 0.00 0.01 0.01 81 1008.6
20260831080725 65 252 3.0 7.0 0.00 0.01 0.01 81 1008.6
20260831075723 65 250 4.0 11.0 0.00 0.01 0.01 81 1008.8
20260831074720 64 247 4.0 9.0 0.00 0.01 0.01 82 1008.6
20260831073717 64 275 3.0 10.0 0.00 0.01 0.01 83 1008.8
20260831072734 64 250 3.0 9.0 0.00 0.01 0.01 83 1008.9
20260831071731 64 247 3.0 8.0 0.00 0.01 0.01 83 1009.0
20260831070728 63 235 2.0 7.0 0.00 0.01 0.01 84 1009.1
20260831065725 63 274 4.0 8.0 0.00 0.01 0.01 84 1008.9
20260831064721 63 208 3.0 7.0 0.00 0.01 0.01 85 1008.7
20260831063718 63 182 3.0 7.0 0.00 0.01 0.01 85 1008.6
20260831062721 63 230 2.0 4.0 0.00 0.01 0.01 86 1008.6
20260831061733 62 201 2.0 6.0 0.00 0.01 0.01 87 1008.5
20260831060730 62 250 2.0 8.0 0.00 0.01 0.01 87 1008.5
20260831055727 62 181 2.0 7.0 0.00 0.01 0.01 88 1008.5
20260831054724 61 166 1.0 4.0 0.00 0.01 0.01 88 1008.3
20260831053720 61 165 1.0 3.0 0.00 0.01 0.01 88 1008.4
20260831052718 61 197 1.0 4.0 0.00 0.01 0.01 88 1008.3
20260831051735 61 179 2.0 6.0 0.00 0.01 0.01 88 1008.4
20260831050732 60 155 1.0 3.0 0.00 0.01 0.01 89 1008.3
20260831045728 60 143 1.0 2.0 0.00 0.01 0.01 90 1008.3
20260831044726 60 155 1.0 4.0 0.00 0.01 0.01 91 1008.4
20260831043722 60 145 1.0 2.0 0.00 0.01 0.01 91 1008.3
20260831042719 60 144 0.0 2.0 0.00 0.01 0.01 91 1008.3
20260831041716 61 161 0.0 1.0 0.01 0.01 0.01 90 1008.1
20260831040733 61 148 1.0 2.0 0.01 0.01 0.01 90 1008.2
20260831035730 61 140 1.0 2.0 0.01 0.01 0.01 89 1008.2
20260831034727 61 150 1.0 3.0 0.01 0.01 0.01 88 1008.3
20260831033724 62 238 1.0 3.0 0.01 0.01 0.01 87 1008.3
20260831032721 63 210 1.0 4.0 0.01 0.01 0.01 85 1008.5
20260831031718 63 168 1.0 6.0 0.00 0.00 0.00 84 1008.5
20260831030715 62 176 1.0 4.0 0.00 0.00 0.00 84 1008.4
20260831025732 62 173 1.0 2.0 0.00 0.00 0.00 85 1008.4
20260831024730 62 160 0.0 2.0 0.00 0.00 0.00 86 1008.3
20260831023727 62 179 0.0 1.0 0.00 0.00 0.00 85 1008.1
20260831022724 62 0.0 0.0 0.00 0.00 0.00 85 1008.2
20260831021720 62 0.0 0.0 0.00 0.00 0.00 85 1008.3
20260831020717 62 176 0.0 1.0 0.00 0.00 0.00 84 1008.2
20260831015735 62 187 0.0 1.0 0.00 0.00 0.00 84 1008.1
20260831014732 62 188 0.0 2.0 0.00 0.00 0.00 83 1008.2
20260831013729 63 148 0.0 1.0 0.00 0.00 0.00 83 1008.4
20260831012726 63 152 1.0 3.0 0.00 0.00 0.00 82 1008.5
20260831011723 63 148 1.0 3.0 0.00 0.00 0.00 82 1008.5
20260831010720 63 186 1.0 2.0 0.00 0.00 0.00 83 1008.8
20260831005717 63 131 0.0 2.0 0.00 0.00 0.00 83 1008.8
20260831004734 63 155 1.0 2.0 0.00 0.00 0.00 83 1008.9
20260831003732 63 161 0.0 1.0 0.00 0.00 0.00 83 1009.0
20260831002728 63 170 1.0 2.0 0.00 0.00 0.00 83 1009.2
20260831001725 63 162 1.0 2.0 0.00 0.00 0.00 82 1009.2
20260831000722 63 149 1.0 2.0 0.00 0.00 0.00 82 1009.2
20260830235720 63 148 0.0 1.0 0.00 0.00 0.00 81 1009.0
20260830234717 63 160 0.0 1.0 0.00 0.00 0.00 81 1009.1
20260830233734 63 157 1.0 2.0 0.00 0.00 0.00 81 1009.2
20260830232736 63 140 0.0 1.0 0.00 0.00 0.00 81 1009.2
20260830231728 63 165 1.0 2.0 0.00 0.00 0.00 81 1009.3
20260830230725 63 152 1.0 2.0 0.00 0.00 0.00 81 1009.4
20260830225722 63 0.0 0.0 0.00 0.00 0.00 81 1009.4
20260830224719 63 161 0.0 1.0 0.00 0.00 0.00 81 1009.6
20260830223716 63 172 1.0 4.0 0.00 0.00 0.00 82 1009.6
20260830222738 62 170 1.0 2.0 0.00 0.00 0.00 83 1009.8
20260830221731 62 126 0.0 2.0 0.00 0.00 0.00 83 1009.9
20260830220728 62 0.0 0.0 0.00 0.00 0.00 83 1010.0
20260830215725 62 0.0 0.0 0.00 0.00 0.00 84 1010.1
20260830214722 62 0.0 0.0 0.00 0.00 0.00 84 1010.1
20260830213719 62 0.0 0.0 0.00 0.00 0.00 84 1010.0
20260830212716 63 0.0 0.0 0.00 0.00 0.00 83 1010.1
20260830211733 63 101 0.0 1.0 0.00 0.00 0.00 83 1010.2
20260830210731 63 0.0 0.0 0.00 0.00 0.00 84 1010.2
20260830205727 63 190 0.0 1.0 0.00 0.00 0.00 84 1010.3
20260830204725 63 0.0 0.0 0.00 0.00 0.00 85 1010.4
20260830203722 63 115 0.0 1.0 0.00 0.00 0.00 86 1010.4
20260830202719 63 134 0.0 1.0 0.00 0.00 0.00 86 1010.4
20260830201716 63 0.0 0.0 0.00 0.00 0.00 86 1010.5
20260830200733 63 0.0 0.0 0.00 0.00 0.00 86 1010.7
20260830195730 63 0.0 0.0 0.00 0.00 0.00 86 1010.5
20260830194729 63 0.0 0.0 0.00 0.00 0.00 85 1010.5
20260830193724 64 0.0 0.0 0.00 0.00 0.00 85 1010.7
20260830192721 64 0.0 0.0 0.00 0.01 0.00 85 1010.7
20260830191718 64 0.0 0.0 0.00 0.05 0.00 84 1010.8
20260830190716 64 0.0 0.0 0.00 0.07 0.00 83 1010.7
20260830185733 65 131 0.0 1.0 0.00 0.09 0.00 82 1010.7
20260830184730 65 0.0 0.0 0.00 0.10 0.00 81 1010.6
20260830183727 66 0.0 0.0 0.00 0.10 0.00 80 1010.7
20260830182724 66 119 0.0 1.0 0.00 0.11 0.00 80 1010.8
20260830181721 67 0.0 0.0 0.00 0.11 0.00 79 1010.7
20260830180718 67 167 0.0 2.0 0.00 0.11 0.00 78 1010.7
20260830175715 68 144 0.0 1.0 0.00 0.11 0.00 77 1010.8
20260830174732 68 213 0.0 1.0 0.00 0.11 0.00 77 1010.9
20260830173730 68 267 1.0 3.0 0.00 0.11 0.00 76 1010.9
20260830172726 69 273 1.0 3.0 0.00 0.11 0.00 75 1010.8
20260830171724 69 259 2.0 4.0 0.00 0.11 0.00 75 1010.8
20260830170721 69 255 2.0 3.0 0.00 0.11 0.00 74 1010.9
20260830165717 69 266 2.0 4.0 0.00 0.11 0.00 73 1010.8
20260830164735 69 257 2.0 4.0 0.00 0.11 0.00 73 1010.9
20260830163732 70 264 3.0 7.0 0.00 0.11 0.00 72 1010.8
20260830162729 70 244 2.0 6.0 0.00 0.11 0.00 71 1010.8
20260830161726 70 258 2.0 6.0 0.00 0.11 0.00 71 1010.9
20260830160723 70 239 3.0 10.0 0.00 0.12 0.00 71 1010.9
20260830155719 70 248 3.0 6.0 0.00 0.12 0.00 71 1010.8
20260830154716 71 250 4.0 9.0 0.00 0.13 0.00 71 1010.7
20260830153733 71 258 3.0 8.0 0.00 0.16 0.00 70 1010.7
20260830152730 71 250 3.0 8.0 0.00 0.16 0.00 70 1010.7
20260830151727 71 266 4.0 9.0 0.00 0.16 0.00 70 1010.8
20260830150724 71 264 4.0 9.0 0.00 0.16 0.00 71 1010.7
20260830145721 70 253 3.0 7.0 0.00 0.16 0.00 73 1010.8
20260830144718 71 266 4.0 9.0 0.00 0.16 0.00 70 1010.7
20260830143735 72 254 4.0 7.0 0.00 0.16 0.00 69 1010.7
20260830142737 70 254 3.0 6.0 0.00 0.16 0.00 73 1010.7
20260830141729 69 191 1.0 3.0 0.00 0.16 0.00 76 1010.7
20260830140726 69 207 1.0 4.0 0.00 0.16 0.00 76 1010.6
20260830135723 69 268 1.0 7.0 0.00 0.16 0.00 76 1010.7
20260830134720 68 244 2.0 4.0 0.00 0.16 0.00 76 1010.7
20260830133717 68 263 3.0 7.0 0.00 0.16 0.00 77 1010.7
20260830132739 68 260 4.0 7.0 0.00 0.16 0.00 78 1010.7
20260830131731 67 261 4.0 8.0 0.00 0.16 0.00 82 1010.8
20260830130728 66 251 3.0 6.0 0.00 0.16 0.00 85 1010.8
20260830125725 67 243 5.0 11.0 0.00 0.16 0.00 81 1010.7
20260830124722 68 237 2.0 4.0 0.00 0.16 0.00 81 1010.5
20260830123719 68 209 1.0 4.0 0.00 0.16 0.00 82 1010.5
20260830122716 67 251 2.0 6.0 0.00 0.16 0.00 84 1010.5
20260830121733 66 252 2.0 4.0 0.00 0.16 0.00 85 1010.3
20260830120730 66 251 3.0 7.0 0.00 0.16 0.00 86 1010.4
20260830115727 65 271 2.0 4.0 0.00 0.16 0.00 90 1010.4
20260830114724 64 276 3.0 8.0 0.00 0.16 0.00 90 1010.5
20260830113721 65 230 4.0 10.0 0.00 0.16 0.00 87 1010.5
20260830112718 66 246 3.0 7.0 0.00 0.16 0.00 86 1010.2
20260830111715 66 253 3.0 8.0 0.00 0.16 0.00 87 1010.1
20260830110732 65 241 2.0 6.0 0.00 0.16 0.00 90 1010.0
20260830105730 64 250 3.0 6.0 0.00 0.16 0.00 89 1010.1
20260830104727 65 268 3.0 8.0 0.00 0.16 0.00 86 1010.0
20260830103724 66 262 4.0 9.0 0.00 0.16 0.00 85 1009.9
20260830102721 64 255 3.0 7.0 0.00 0.16 0.00 87 1009.9
20260830101718 64 193 2.0 7.0 0.00 0.16 0.00 89 1009.8